Overview Statistics Trail Chart Weather Telemetry Raw packets
 

This is the latest recevied weather packets stored in our database for station/object KQ4KX. If no packets are shown the sender has not sent any weather packets the latest 10 day(s).

<< 27 28 29 30 31 32 33 >>
Time Temp. Humidity Pressure Rain* Wind** Luminosity Snow
1788488344 25° C 99% 1014.7 hPa 0 mm - - -
1788487921 25° C 99% 1014.6 hPa 0 mm - - -
1788487747 25° C 99% 1014.6 hPa 0 mm - - -
1788487415 25° C 99% 1014.7 hPa 0 mm - - -
1788485942 25° C 99% 1014.9 hPa 0 mm - - -
1788485855 25° C 99% 1014.9 hPa 0 mm - - -
1788485554 25° C 99% 1014.8 hPa 0 mm - - -
1788485025 25° C 99% 1014.8 hPa 0.25 mm - - -
1788484894 25° C 99% 1014.8 hPa 0.25 mm - - -
1788484658 25° C 99% 1014.8 hPa 0.25 mm - - -
1788484564 25° C 99% 1014.8 hPa 0.25 mm - - -
1788484264 25° C 98% 1014.8 hPa 0.25 mm - - -
1788484053 25° C 99% 1014.8 hPa 0.25 mm - - -
1788483964 25° C 99% 1014.8 hPa 0.25 mm - - -
1788483431 25.56° C 99% 1014.6 hPa 0.25 mm - - -
1788483304 25.56° C 99% 1014.6 hPa 0.25 mm - - -
1788482675 25.56° C 99% 1014.4 hPa 0.51 mm - - -
1788482374 25.56° C 99% 1014.3 hPa 0.76 mm - - -
1788481744 25.56° C 99% 1014.2 hPa 1.27 mm - - -
1788481414 25.56° C 99% 1014.3 hPa 1.78 mm - - -
1788480553 25.56° C 99% 1014.4 hPa 3.56 mm - - -
1788480454 25.56° C 99% 1014.4 hPa 3.56 mm - - -
1788479854 25.56° C 99% 1014.4 hPa 4.06 mm - - -
1788479676 26.11° C 98% 1014.3 hPa 3.81 mm - - -
1788479525 26.11° C 98% 1014.3 hPa 3.81 mm - - -

* Rain latest hour (hover to see other rain measurements)
** Current wind speed in m/s (hover to see current wind gust speed)